Wind_Speed
24 27 32 38 52 71 82 93 97 99 102 108 107 105 98 105 105 100 101 105 107 103 103 108 112 104 108 110 112 115 110 112 110 113 111 103 99 93 92 87 84 85 83 84
28 32 30 33 37 44 56 74 87 97 104 112 111 110 107 108 105 103 107 108 106 103 106 108 110 106 100 103 108 114 116 116 114 114 113 108 103 99 97 93 85 82 78 83
31 34 33 36 39 43 48 63 75 89 95 107 114 114 111 109 107 104 109 111 109 106 106 108 110 104 98 97 99 107 112 119 117 115 116 113 113 108 100 100 92 67 73 75
35 35 37 40 42 49 48 60 70 75 81 93 104 109 113 113 110 108 109 113 110 108 107 106 110 108 98 98 98 103 106 110 115 117 115 116 110 113 108 102 97 92 80 73
45 39 40 40 45 53 51 57 59 65 67 76 84 98 96 105 109 110 113 116 117 115 113 109 110 108 100 96 98 101 106 107 109 110 113 113 114 112 112 106 100 99 91 89
55 49 46 45 49 56 54 49 50 52 54 64 64 84 86 93 98 103 108 114 116 120 115 112 113 112 108 102 99 99 105 106 105 104 105 106 108 110 111 111 104 97 98 94
54 51 44 47 45 57 62 41 42 46 48 47 54 70 71 80 92 96 98 99 100 106 111 114 116 115 115 111 105 101 103 106 105 103 102 103 101 103 106 106 107 106 102 94
59 57 55 53 53 58 64 53 45 43 48 47 48 54 56 67 78 86 88 92 94 94 94 99 106 110 111 113 110 106 107 108 109 106 102 100 101 100 100 100 104 108 107 101
66 68 60 55 55 63 62 52 45 44 39 44 47 55 50 60 67 76 81 90 89 85 87 87 93 96 97 102 106 109 109 109 108 107 104 101 100 99 97 97 97 97 98 102
71 71 63 60 62 62 64 47 44 44 41 42 44 57 56 57 57 65 73 82 82 84 83 83 86 85 87 89 90 93 100 106 109 109 107 104 102 99 98 95 95 95 96 95
75 75 66 63 62 66 57 44 42 41 38 41 42 40 55 57 56 59 66 77 81 83 79 79 82 85 82 81 82 84 87 91 98 102 107 107 105 101 101 98 94 92 94 93
78 76 71 66 64 67 56 41 36 36 36 40 43 35 48 56 59 61 66 71 73 76 71 75 82 81 80 78 77 78 80 81 83 89 96 100 104 103 102 100 98 96 93 92
78 76 75 69 67 70 56 38 33 32 34 34 32 35 55 53 51 60 66 71 75 73 69 68 74 77 78 78 76 74 75 75 76 82 85 91 97 99 102 102 101 98 96 92
82 79 79 69 71 71 57 40 34 28 34 33 30 38 50 50 51 54 64 70 73 72 67 63 72 78 78 77 77 74 73 73 72 73 76 82 88 94 97 102 101 100 98 95
82 81 81 70 71 74 55 41 32 28 35 28 31 30 41 47 51 53 56 62 67 71 67 66 67 76 77 77 76 76 71 71 73 73 74 77 83 88 92 96 99 100 98 95
83 82 79 72 74 69 51 37 32 35 31 28 31 33 40 42 42 45 51 57 60 61 64 62 58 62 78 77 72 76 75 73 77 75 73 72 75 81 89 93 96 99 98 96
84 82 76 72 77 61 44 35 32 36 33 29 32 38 37 40 39 43 44 49 54 56 59 62 55 60 64 74 74 81 79 77 74 73 76 76 74 75 81 88 93 96 98 99
83 85 75 75 74 56 41 33 30 32 31 30 30 33 38 44 37 41 42 43 46 48 51 52 51 54 57 59 72 72 77 74 73 75 76 76 77 76 76 79 85 90 96 98
83 82 73 77 66 51 38 31 26 26 30 30 31 29 32 40 40 43 41 41 40 40 44 45 45 38 33 40 52 58 68 75 73 73 74 75 76 75 77 76 75 80 88 91
82 79 73 76 59 45 36 32 29 27 29 28 27 30 31 30 32 42 36 37 34 32 35 36 33 28 32 39 45 49 53 62 71 72 69 69 70 71 71 72 77 77 77 81
83 73 76 68 53 41 37 30 26 27 27 26 23 27 30 31 31 36 35 32 30 27 28 33 32 29 32 38 39 37 41 49 55 57 57 56 57 59 62 68 72 75 78 75
77 72 74 58 47 39 30 25 24 24 26 25 27 25 25 30 31 30 30 28 23 24 27 29 30 30 29 26 24 26 30 38 40 42 44 47 47 46 47 48 53 61 70 69
69 72 64 52 46 35 25 24 24 22 22 23 21 21 21 24 25 25 24 22 21 19 23 23 21 20 17 16 18 21 22 22 25 26 29 30 32 35 37 38 39 43 52 57
68 68 53 45 33 24 21 19 17 16 16 16 16 15 15 15 13 14 15 16 15 15 12 11 10 11 13 14 13 12 12 14 15 18 18 19 21 22 24 26 29 32 37 45
67 55 44 32 22 16 13 16 15 16 18 18 15 13 9 6 5 5 6 7 7 6 5 6 7 8 7 6 7 8 9 9 10 12 14 15 15 16 18 20 23 27 30 35
56 44 32 17 14 15 19 21 21 23 22 19 18 15 11 8 7 4 6 6 8 13 14 14 14 15 17 16 17 20 21 20 19 17 18 19 18 17 19 23 27 32 40 47
Wind_Direction
287 277 269 266 262 254 252 251 250 248 247 249 250 250 245 245 247 249 249 249 250 251 252 254 249 243 244 246 248 250 247 249 248 251 253 250 248 250 255 257 259 264 262 263
290 286 286 282 277 270 262 256 251 247 246 247 247 247 245 245 245 245 247 248 250 250 250 251 253 248 243 243 244 248 248 247 248 248 251 253 254 248 250 254 258 260 264 266
296 292 292 290 291 289 283 268 258 252 247 246 246 246 246 245 245 246 247 247 247 247 248 250 251 250 246 243 247 247 248 248 248 249 249 251 253 256 250 249 250 254 262 262
318 304 296 299 302 301 294 278 265 260 253 250 250 247 245 247 246 246 247 250 249 248 248 249 251 249 247 246 246 248 249 250 250 249 250 249 249 251 253 252 247 250 254 255
332 316 304 307 309 309 308 286 273 264 258 253 249 251 245 245 244 243 244 246 248 247 247 248 251 252 248 246 247 249 249 249 250 250 250 251 251 250 253 253 252 251 249 254
343 328 315 316 315 315 310 290 278 269 262 255 249 251 248 246 246 244 244 244 246 248 247 247 250 252 252 248 243 245 249 249 250 251 252 251 250 251 251 251 253 254 255 254
339 331 315 314 319 322 319 296 278 272 265 260 253 248 247 246 245 245 244 246 246 249 250 248 248 249 250 250 247 245 245 249 248 248 249 250 251 250 250 251 251 252 254 253
343 339 325 326 327 328 322 308 291 275 271 261 255 255 246 242 243 246 245 246 246 246 248 251 250 247 249 251 250 246 245 246 248 247 247 248 250 250 251 251 251 251 253 253
342 342 332 328 330 330 325 309 293 288 277 264 255 253 246 242 237 241 242 243 244 245 245 246 251 252 250 249 250 248 246 246 247 248 248 247 248 249 249 250 250 250 250 252
342 342 333 328 329 331 326 308 294 289 280 271 252 248 245 247 243 240 242 245 244 241 243 245 249 250 250 250 250 249 248 246 246 246 247 246 246 247 248 248 249 249 249 249
340 338 335 328 328 331 327 310 296 291 284 269 259 256 249 245 247 244 244 243 243 243 236 241 245 246 247 248 250 249 248 247 247 245 245 245 245 245 246 246 247 249 249 250
337 337 334 328 330 331 328 312 295 290 279 273 271 259 250 241 239 242 247 251 252 249 242 239 241 246 247 247 247 248 248 246 246 246 245 244 244 243 244 245 245 246 248 250
334 334 335 328 332 333 328 314 297 292 279 268 263 249 248 243 238 241 244 247 252 252 247 240 243 243 246 248 246 246 247 247 246 245 244 244 243 242 242 243 245 244 244 246
333 334 335 330 331 334 329 319 306 300 286 278 264 251 253 254 247 239 241 245 252 257 254 245 240 240 241 244 248 247 246 247 247 246 243 242 242 241 241 241 242 245 244 244
333 332 334 330 332 332 327 319 308 291 282 276 269 263 255 252 250 250 247 246 247 252 256 255 243 241 241 242 244 248 246 246 246 246 242 240 241 241 240 240 240 242 245 247
331 331 333 329 332 331 323 317 301 296 290 277 269 264 264 263 266 259 257 254 256 257 259 260 253 244 243 243 242 244 246 246 246 247 248 245 242 240 241 239 239 240 241 243
330 330 332 330 331 330 322 313 303 296 288 274 266 264 270 271 264 261 255 257 259 255 257 259 256 251 246 245 244 242 242 242 247 247 246 246 246 243 241 240 240 240 239 239
329 330 330 331 331 329 320 310 304 292 280 273 267 263 266 270 271 270 267 266 257 256 258 258 259 254 254 248 246 247 248 247 244 245 246 247 246 245 244 241 240 240 241 239
328 331 330 330 330 327 321 314 305 298 290 284 280 276 264 271 276 275 273 273 271 270 265 264 266 269 270 260 254 252 249 252 253 251 250 249 248 247 245 244 243 240 239 241
328 329 330 331 329 325 321 316 310 299 291 290 287 283 278 270 270 273 276 273 271 264 266 266 265 256 249 248 247 245 242 243 246 249 251 249 249 249 247 245 243 241 242 238
327 328 328 330 326 324 318 317 309 301 299 295 280 273 270 270 263 263 269 271 270 268 262 259 257 249 241 237 241 242 241 243 247 252 254 254 252 250 246 243 241 238 238 238
327 327 328 327 324 319 320 308 302 305 301 298 296 286 276 272 269 264 268 273 265 254 253 252 249 246 250 246 242 239 239 241 242 247 248 247 248 249 248 242 237 235 235 236
327 327 327 326 325 327 329 320 324 330 322 316 312 302 289 284 278 276 272 269 262 245 242 251 255 250 245 237 232 233 235 239 241 243 242 243 242 241 239 236 231 227 225 226
327 327 329 327 326 334 335 341 351 358 354 350 336 324 316 297 290 276 265 262 258 256 252 242 230 219 216 219 220 228 231 234 235 232 229 231 233 231 229 225 222 217 211 210
327 327 331 330 337 5 19 29 33 39 35 29 21 9 2 331 298 268 246 235 230 222 193 172 176 178 173 165 173 174 169 173 182 190 197 192 191 189 194 193 191 189 185 180
325 330 332 339 16 54 65 66 57 50 43 30 29 33 27 40 54 92 131 137 151 135 135 131 129 130 122 122 126 127 127 130 128 127 122 115 119 135 146 145 151 152 149 150
Height
10630 10626 10624 10622 10620 10619 10617 10617 10621 10631 10627 10615 10625 10634 10658 10647 10649 10668 10670 10669 10674 10688 10694 10690 10704 10733 10743 10756 10752 10755 10766 10771 10780 10783 10788 10801 10820 10827 10831 10833 10832 10836 10842 10846
10620 10615 10613 10609 10605 10601 10597 10593 10595 10596 10596 10587 10596 10603 10620 10623 10635 10646 10644 10648 10658 10667 10667 10667 10672 10704 10726 10731 10734 10725 10738 10748 10755 10761 10767 10783 10794 10811 10815 10818 10821 10823 10826 10830
10608 10603 10600 10595 10589 10584 10581 10570 10565 10564 10566 10562 10569 10581 10590 10600 10612 10624 10618 10621 10632 10643 10647 10647 10651 10675 10696 10708 10711 10704 10712 10720 10731 10740 10749 10762 10773 10784 10798 10800 10809 10807 10806 10812
10595 10589 10584 10579 10573 10562 10561 10542 10539 10540 10541 10543 10541 10556 10564 10576 10588 10599 10601 10598 10608 10618 10625 10629 10625 10643 10672 10680 10688 10685 10687 10693 10705 10717 10725 10738 10750 10762 10773 10780 10789 10790 10792 10798
10584 10576 10569 10565 10557 10545 10536 10521 10515 10513 10517 10517 10527 10519 10548 10539 10556 10567 10568 10569 10574 10585 10595 10607 10605 10617 10643 10658 10663 10665 10665 10674 10679 10691 10704 10716 10728 10742 10749 10758 10767 10772 10780 10783
10572 10559 10552 10547 10541 10527 10514 10503 10496 10493 10495 10493 10513 10497 10513 10524 10529 10531 10539 10548 10552 10555 10576 10593 10593 10595 10609 10624 10638 10647 10643 10651 10662 10672 10680 10691 10704 10714 10726 10736 10747 10752 10757 10769
10567 10554 10543 10534 10532 10511 10490 10482 10481 10479 10475 10481 10481 10474 10490 10503 10499 10507 10512 10525 10536 10539 10550 10563 10571 10574 10577 10592 10612 10625 10629 10627 10636 10647 10658 10667 10678 10688 10699 10711 10723 10730 10738 10750
10555 10543 10522 10512 10505 10497 10479 10468 10463 10462 10461 10464 10463 10464 10473 10475 10479 10485 10498 10502 10509 10520 10529 10535 10538 10549 10559 10568 10584 10599 10603 10606 10608 10620 10635 10645 10655 10666 10677 10688 10698 10709 10717 10726
10539 10525 10509 10497 10491 10476 10467 10453 10448 10444 10446 10445 10450 10447 10454 10449 10459 10459 10467 10473 10485 10500 10504 10511 10516 10527 10541 10544 10553 10567 10579 10585 10591 10600 10614 10626 10635 10644 10655 10666 10676 10688 10694 10702
10523 10515 10496 10484 10471 10468 10449 10440 10432 10428 10426 10427 10434 10429 10435 10437 10445 10447 10450 10452 10462 10475 10484 10493 10497 10507 10511 10519 10530 10538 10550 10559 10567 10577 10587 10600 10613 10623 10632 10643 10652 10662 10670 10681
10512 10499 10489 10474 10464 10455 10442 10428 10419 10413 10413 10409 10412 10416 10413 10426 10431 10430 10432 10430 10434 10445 10461 10473 10476 10477 10491 10500 10507 10514 10524 10533 10540 10552 10563 10573 10586 10599 10609 10620 10630 10639 10648 10658
10500 10490 10477 10462 10453 10440 10429 10418 10411 10404 10401 10396 10396 10405 10399 10404 10410 10414 10415 10418 10422 10426 10440 10452 10454 10463 10471 10479 10487 10492 10501 10511 10519 10526 10537 10549 10560 10573 10584 10597 10607 10618 10628 10637
10495 10481 10468 10448 10438 10426 10413 10405 10398 10394 10389 10385 10390 10390 10374 10382 10399 10399 10399 10402 10403 10408 10417 10431 10442 10449 10455 10459 10467 10475 10482 10491 10500 10504 10514 10523 10533 10548 10558 10570 10582 10596 10608 10618
10478 10465 10454 10439 10423 10412 10398 10391 10383 10381 10373 10374 10376 10372 10368 10374 10379 10382 10386 10387 10390 10392 10398 10410 10414 10421 10433 10442 10448 10457 10464 10471 10479 10487 10498 10503 10510 10520 10532 10543 10558 10570 10583 10597
10468 10453 10442 10427 10415 10398 10387 10379 10373 10373 10367 10368 10364 10365 10356 10357 10361 10366 10371 10372 10374 10378 10383 10387 10395 10401 10414 10424 10432 10437 10447 10455 10459 10462 10470 10479 10489 10499 10509 10520 10532 10547 10560 10572
10458 10442 10429 10412 10403 10389 10376 10370 10363 10358 10357 10355 10352 10348 10343 10345 10355 10359 10359 10361 10364 10370 10370 10375 10381 10390 10392 10402 10417 10418 10426 10433 10437 10445 10454 10461 10469 10478 10487 10497 10509 10523 10538 10551
10445 10433 10418 10402 10390 10377 10366 10359 10354 10348 10345 10344 10342 10339 10341 10337 10341 10340 10341 10344 10347 10353 10355 10358 10364 10370 10378 10382 10392 10392 10398 10409 10420 10429 10433 10439 10447 10458 10467 10475 10488 10501 10514 10528
10433 10419 10404 10391 10378 10365 10357 10350 10347 10339 10335 10334 10332 10328 10327 10324 10330 10327 10328 10334 10335 10337 10340 10342 10344 10350 10356 10365 10365 10375 10383 10392 10401 10406 10410 10417 10425 10433 10441 10451 10465 10477 10487 10505
10421 10409 10393 10381 10367 10354 10347 10341 10337 10331 10326 10325 10326 10326 10326 10320 10318 10314 10319 10317 10321 10324 10328 10331 10333 10339 10346 10352 10356 10365 10370 10374 10379 10385 10391 10396 10400 10411 10420 10431 10442 10453 10462 10476
10409 10394 10383 10370 10356 10346 10338 10331 10327 10322 10318 10316 10315 10313 10313 10313 10311 10304 10306 10307 10311 10316 10317 10320 10323 10327 10328 10332 10335 10342 10348 10351 10355 10359 10366 10373 10382 10391 10400 10409 10417 10428 10438 10454
10398 10383 10369 10357 10346 10339 10328 10324 10319 10314 10310 10306 10306 10303 10301 10299 10299 10296 10295 10297 10300 10303 10305 10305 10308 10312 10314 10317 10321 10328 10333 10338 10342 10346 10350 10356 10361 10368 10377 10384 10394 10403 10413 10426
10389 10374 10361 10348 10339 10331 10325 10319 10313 10308 10303 10300 10296 10294 10293 10290 10288 10289 10290 10290 10293 10295 10296 10297 10300 10301 10305 10310 10315 10319 10322 10325 10330 10334 10338 10340 10344 10350 10357 10365 10374 10384 10393 10408
10379 10365 10352 10340 10330 10323 10318 10312 10307 10303 10299 10295 10291 10288 10287 10285 10284 10284 10285 10286 10287 10289 10289 10290 10293 10297 10301 10303 10307 10309 10313 10317 10320 10324 10327 10330 10334 10337 10343 10350 10358 10366 10378 10393
10368 10355 10345 10334 10328 10321 10312 10308 10306 10302 10298 10295 10291 10286 10282 10281 10280 10279 10280 10282 10283 10286 10287 10289 10291 10294 10296 10299 10302 10304 10308 10313 10316 10319 10321 10323 10327 10331 10336 10342 10349 10358 10368 10381
10361 10348 10340 10332 10324 10320 10313 10309 10306 10302 10297 10294 10290 10288 10283 10281 10279 10278 10278 10279 10281 10284 10287 10289 10291 10294 10297 10300 10304 10308 10310 10312 10314 10316 10319 10321 10324 10328 10333 10339 10347 10356 10367 10382
10352 10343 10336 10330 10325 10320 10317 10314 10310 10304 10301 10298 10294 10291 10287 10285 10284 10282 10280 10281 10284 10285 10290 10292 10295 10298 10300 10304 10309 10311 10313 10316 10319 10322 10324 10326 10329 10333 10338 10343 10352 10362 10374 10389